logo
Rechercher aéroport 
image banner adimage banner adimage banner ad
image banner ad

SHCI - San Cristobal

Situé à Zapallar, Chile

ICAO - SHCI, IATA -

Données fournies par Airmate  

Information générale

Coordonnées: S32°34'45" W71°27'18"
Élévation : 98 feet MSL.
 
Voir autres Aéroports à Valparaíso

Données opérationnelles

Special qualification required
Heure actuelle UTC:
Heure actuelle locale:
Météo à : SCVM - Vina Del Mar ( 41 km )
METAR: SCVM 141700Z 31009KT 5000 HZ FEW010 11/07 Q1022
TAF: TAF SCVM 141600Z 1418/1518 30008KT 5000 HZ NSC TX15/1419Z TN04/1510Z BECMG 1418/1420 CAVOK BECMG 1502/1504 14003KT 5000 BR SCT008 BKN012 TEMPO 1506/1512 VRB02KT 0800 FG OVC005 BECMG 1514/1516 31010KT 9999 SCT012 BKN020
Voir NOTAMs / SUP AIP / TFR affectant cet aéroport [VIEW]
Fréquences de communication: [VIEW]

Pistes:

Coordonnées de l'aéroport

Adresse: Zapallar Chile

Vue satellite de SHCI